Location: Newark
(43.0000°N, 1.6781°W)
Time: 01:30:19
(UTC+00:00)

Vanguard 1 Rocket - Pass Details

Date: 21 April 2021
Orbit: 652 x 4224 km, 34.3° (Epoch: 06 May)

Event Time Altitude Azimuth Distance (km) Brightness Sun altitude
Rises 16:13:18 0° 259° (W) 3,114 11.4 28.6°
Reaches altitude 10° 16:16:02 10° 246° (WSW) 2,075 10.8 28.1°
Maximum altitude 16:19:41 25° 189° (S) 1,321 8.7 27.5°
Drops below altitude 10° 16:23:36 10° 133° (SE) 2,237 9.2 26.8°
Sets 16:26:41 0° 121° (ESE) 3,423 9.9 26.2°
